Weather History for OITL - February, 2014

Change the Weather History Date:

Saturday, February 1, 2014

  Actual Average Record
Temperature  
Mean Temperature 10 °F -  
Max Temperature 14 °F - - ()
Min Temperature 6 °F - - ()
Degree Days  
Heating Degree Days 55    
Moisture  
Dew Point 9 °F    
Average Humidity 94    
Maximum Humidity 100    
Minimum Humidity 85    
Precipitation  
Precipitation 0.00 in - - ()
Sea Level Pressure  
Sea Level Pressure 30.44 in    
Wind  
Wind Speed 16 mph ()    
Max Wind Speed 22 mph    
Max Gust Speed -    
Visibility 2.5 miles    
Events Snow    
T = Trace of Precipitation, MM = Missing Value Source: Averaged Metar Reports

Daily Weather History Graph

Daily Weather History Graph

Search for Another Location

Airport or City:

Trip Planner

Search our weather history database for the weather conditions in past years. The results will help you decide how hot, cold, wet, or windy it might be!

Date:

Astronomy

Feb. 01, 2014 Rise Set
Actual Time 7:21 AM IRST 5:38 PM IRST
Civil Twilight 6:53 AM IRST 6:06 PM IRST
Nautical Twilight 6:22 AM IRST 6:38 PM IRST
Astronomical Twilight 5:51 AM IRST 7:09 PM IRST
Moon 7:58 AM IRST (2/1) 7:44 PM IRST (2/1)
Length of Visible Light 11h 12m
Length of Day
10h 16m
Waxing Crescent, 3% of the Moon is Illuminated
Feb 1
Waxing Crescent
Feb 6
First Quarter
Feb 15
Full
Feb 22
Last Quarter
Mar 1
New

Hourly Weather History & Observations

Time (IRST) Temp. Windchill Dew Point Humidity Pressure Visibility Wind Dir Wind Speed Gust Speed Precip Events Conditions
2:20 AM 12.2 °F -6.3 °F 10.4 °F 92% 30.39 in 1.9 mi ENE 20.7 mph - N/A Snow Light Snow
3:00 AM 12.2 °F -6.3 °F 10.4 °F 92% 30.39 in 1.9 mi ENE 20.7 mph - N/A Snow Light Snow
3:20 AM 12.2 °F -3.1 °F 10.4 °F 92% 30.39 in 2.5 mi ENE 13.8 mph - N/A Snow Light Snow
4:00 AM 10.4 °F -6.6 °F 8.6 °F 92% 30.39 in 2.5 mi ENE 16.1 mph - N/A Snow Light Snow
4:30 AM 10.4 °F -6.6 °F 8.6 °F 92% 30.39 in 3.1 mi East 16.1 mph - N/A Snow Light Snow
5:00 AM 10.4 °F -6.6 °F 8.6 °F 92% 30.39 in 3.7 mi East 16.1 mph - N/A Snow Light Snow
5:30 AM 10.4 °F -7.7 °F 8.6 °F 92% 30.39 in 3.7 mi East 18.4 mph - N/A Snow Light Snow
6:00 AM 10.4 °F -5.4 °F 6.8 °F 85% 30.39 in 3.7 mi East 13.8 mph - N/A   Overcast
6:30 AM 10.4 °F -7.7 °F 10.4 °F 100% 30.39 in 2.5 mi ENE 18.4 mph - N/A Snow Snow
7:20 AM 10.4 °F -6.6 °F 10.4 °F 100% 30.39 in 3.1 mi East 16.1 mph - N/A Snow Blowing Snow
8:00 AM 10.4 °F -6.6 °F 8.6 °F 92% 30.42 in 3.1 mi ENE 16.1 mph - N/A Snow Low Drifting Snow
8:30 AM 10.4 °F -4.1 °F 8.6 °F 92% 30.42 in 2.5 mi ENE 11.5 mph - N/A   Ice Crystals
9:00 AM 10.4 °F -6.6 °F 8.6 °F 92% 30.42 in 4.3 mi ENE 16.1 mph - N/A   Ice Crystals
9:30 AM 10.4 °F -5.4 °F 8.6 °F 92% 30.45 in 4.3 mi ENE 13.8 mph - N/A   Ice Crystals
10:00 AM 12.2 °F -3.1 °F 12.2 °F 100% 30.45 in 3.1 mi ENE 13.8 mph - N/A   Ice Crystals
10:30 AM 12.2 °F -3.1 °F 12.2 °F 100% 30.45 in 3.1 mi ENE 13.8 mph - N/A   Ice Crystals
11:00 AM 12.2 °F -4.3 °F 10.4 °F 92% 30.45 in 2.5 mi ENE 16.1 mph - N/A   Ice Crystals
11:30 AM 12.2 °F -5.3 °F 12.2 °F 100% 30.45 in 2.5 mi ENE 18.4 mph - N/A   Ice Crystals
12:00 PM 12.2 °F -5.3 °F 12.2 °F 100% 30.45 in 2.5 mi ENE 18.4 mph - N/A   Ice Crystals
12:30 PM 14.0 °F -2.0 °F 12.2 °F 93% 30.45 in 2.5 mi East 16.1 mph - N/A   Ice Crystals
1:00 PM 14.0 °F -3.0 °F 12.2 °F 93% 30.45 in 1.9 mi East 18.4 mph - N/A Snow Light Snow
1:30 PM 14.0 °F -2.0 °F 14.0 °F 100% 30.45 in 1.9 mi ENE 16.1 mph - N/A Snow Light Snow
2:30 PM 14.0 °F -2.0 °F 12.2 °F 93% 30.42 in 1.9 mi East 16.1 mph - N/A Snow Light Snow
3:00 PM 14.0 °F -4.3 °F 12.2 °F 93% 30.45 in 0.9 mi ENE 21.9 mph - N/A Snow Snow
3:30 PM 14.0 °F -4.3 °F 12.2 °F 93% 30.42 in 1.2 mi ENE 21.9 mph - N/A Snow Light Snow
4:00 PM 14.0 °F -4.3 °F 12.2 °F 93% 30.42 in 1.2 mi ENE 21.9 mph - N/A Snow Light Snow
4:30 PM 12.2 °F -6.7 °F 10.4 °F 92% 30.45 in 1.2 mi ENE 21.9 mph - N/A Snow Light Snow
5:00 PM 12.2 °F -6.7 °F 8.6 °F 85% 30.45 in 1.2 mi ENE 21.9 mph - N/A Snow Light Snow
5:30 PM 10.4 °F -9.1 °F 10.4 °F 100% 30.45 in 1.9 mi ENE 21.9 mph - N/A Snow Light Snow
6:30 PM 8.6 °F -11.0 °F 8.6 °F 100% 30.45 in 3.1 mi ENE 20.7 mph - N/A Snow Light Snow
7:30 PM 8.6 °F -8.9 °F 6.8 °F 92% 30.48 in 2.5 mi ENE 16.1 mph - N/A   Ice Crystals
8:00 PM 8.6 °F -8.9 °F 8.6 °F 100% 30.48 in 2.5 mi ENE 16.1 mph - N/A   Ice Crystals
8:30 PM 8.6 °F -7.7 °F 6.8 °F 92% 30.48 in 2.5 mi East 13.8 mph - N/A   Ice Crystals
9:00 PM 8.6 °F -7.7 °F 6.8 °F 92% 30.48 in 2.5 mi East 13.8 mph - N/A   Ice Crystals
9:30 PM 8.6 °F -8.9 °F 6.8 °F 92% 30.48 in 2.5 mi ENE 16.1 mph - N/A   Ice Crystals
10:00 PM 8.6 °F -7.7 °F 6.8 °F 92% 30.48 in 2.5 mi ENE 13.8 mph - N/A   Ice Crystals
10:30 PM 6.8 °F -12.4 °F 5.0 °F 92% 30.48 in 3.1 mi ENE 18.4 mph - N/A   Ice Crystals
11:00 PM 6.8 °F -11.3 °F 5.0 °F 92% 30.48 in 2.5 mi ENE 16.1 mph - N/A   Ice Crystals
11:30 PM 6.8 °F -11.3 °F 5.0 °F 92% 30.48 in 2.5 mi ENE 16.1 mph - N/A   Ice Crystals